Página principal
METAR-TAF:

METAR-TAF

Aeroportos :

Guelmim, Marrocos

latitude: 29-01-00N, longitude: 10-04-04W, altura: 301 m

Observação actual do tempo

O boletim foi feito há 6 horas e 11 minutos, às 18:00 UTC
Vento 12 kt de oeste
Temperatura 29°C
Humidade 52%
Pressão 1016 hPa
Visibilidade: 6000 m

METAR: GMAG 191800Z 28012KT 6000 NSC 29/18 Q1016 NOSIG

Hora: 01:11 (00:11 UTC)


TAF: em falta

Observações e previsões do tempo de mais de 4000 aeroportos (mensagens METAR e TAF).

As estações disponíveis são os pontos amarelos e vermelhos sobre o mapa.

Mova o rato sobre o mapa para ver o nome da estação.

Depois clique no ponto para visualizar as observações e previsões meteorológicas.

Para alterar o mapa : clique nos botões verdes com uma cruz preta para aumentar o zoom; no botão verde com uma pitada de zoom; ou nas setas verdes para mapas adjacentes.


METAR-TAF: